Simultaneous Nadir Overpasses (SNOs) Predictions

Prediction of SNOs between GOES-16 and NOAA-20 Satellite Orbit:

Table of predicted SNOs for the next 14.0 days since TLE Epoch: 1/7/2023
Index Date Time (GOES-16) GOES-16 Lat,Lon NOAA-20 Lat,Lon Distance(km) Time Diff (sec)
1 01/07/2023 18:26:32 0.03, -75.19 -0.08, -75.72 59.65 80
2 01/08/2023 18:10:27 0.03, -75.20 0.92, -71.19 457.32 80
3 01/10/2023 06:32:16 -0.03, -75.21 0.26, -76.45 142.44 80
4 01/11/2023 06:10:51 -0.03, -75.22 -0.74, -71.92 374.81 80
5 01/12/2023 18:32:48 0.04, -75.23 -0.42, -77.23 228.01 80
6 01/13/2023 18:16:44 0.03, -75.25 0.58, -72.70 289.81 80
7 01/15/2023 06:38:32 -0.03, -75.27 0.59, -77.97 308.43 80
8 01/16/2023 06:17:08 -0.03, -75.28 -0.42, -73.44 209.47 80
9 01/17/2023 18:39:05 0.02, -75.30 -0.74, -78.75 392.90 80
10 01/18/2023 18:23:01 0.01, -75.31 0.27, -74.22 125.24 80
11 01/20/2023 06:44:48 0.00, -75.34 0.95, -79.47 472.27 80
